• In United Kingdom
  • List of Countries
  • For 7 days
  • Water Temperature
  • Satellite Maps
  • Weather Map
  • Weather Widgets
  • user-avatar
    Login

    Hourly Weather Shkoder

    Today, 23 May, Wednesday

    Time Temperature Precipitation Wind Pressure Humidity
    00:00 +18°C° 0.1 mm 2 mps 740 mmHg 74%
    01:00 +19°C° 0 mm 2 mps 740 mmHg 73%
    02:00 +18°C° 0.1 mm 2 mps 740 mmHg 73%
    03:00 +18°C° 0.1 mm 2 mps 740 mmHg 73%
    04:00 +18°C° 0.1 mm 2 mps 740 mmHg 74%
    05:00 +19°C° 0.7 mm 2 mps 740 mmHg 73%
    06:00 +21°C° 0.7 mm 2 mps 740 mmHg 72%
    07:00 +23°C° 0.7 mm 1 mps 740 mmHg 70%
    08:00 +24°C° 0.5 mm 1 mps 740 mmHg 65%
    09:00 +26°C° 0.5 mm 1 mps 740 mmHg 60%
    10:00 +27°C° 0.5 mm 1 mps 740 mmHg 56%
    11:00 +27°C° 0.6 mm 2 mps 740 mmHg 55%
    12:00 +28°C° 0.6 mm 2 mps 740 mmHg 54%
    13:00 +28°C° 0.6 mm 3 mps 740 mmHg 53%
    14:00 +27°C° 1.3 mm 3 mps 739 mmHg 62%
    15:00 +25°C° 1.3 mm 2 mps 739 mmHg 71%
    16:00 +23°C° 1.3 mm 2 mps 739 mmHg 81%
    17:00 +21°C° 0.6 mm 2 mps 739 mmHg 82%
    18:00 +21°C° 0.6 mm 2 mps 738 mmHg 84%
    19:00 +20°C° 0.6 mm 2 mps 738 mmHg 85%
    20:00 +20°C° 0.4 mm 2 mps 739 mmHg 84%
    21:00 +19°C° 0.4 mm 2 mps 739 mmHg 83%
    22:00 +19°C° 0.4 mm 2 mps 739 mmHg 82%
    23:00 +19°C° 0.1 mm 2 mps 739 mmHg 82%

    Tomorrow, 24 May, Thursday

    Time Temperature Precipitation Wind Pressure Humidity
    00:00 +19°C° 0.1 mm 2 mps 739 mmHg 82%
    01:00 +18°C° 0.1 mm 2 mps 739 mmHg 81%
    02:00 +18°C° 0.1 mm 2 mps 739 mmHg 82%
    03:00 +18°C° 0.1 mm 2 mps 739 mmHg 82%
    04:00 +18°C° 0.1 mm 2 mps 739 mmHg 82%
    05:00 +20°C° 0 mm 1 mps 739 mmHg 79%
    06:00 +21°C° 0 mm 1 mps 739 mmHg 75%
    07:00 +23°C° 0 mm 1 mps 739 mmHg 72%
    08:00 +24°C° 0.1 mm 1 mps 739 mmHg 68%
    09:00 +25°C° 0.1 mm 1 mps 739 mmHg 63%
    10:00 +26°C° 0.1 mm 2 mps 739 mmHg 58%
    11:00 +26°C° 0.5 mm 2 mps 739 mmHg 59%
    12:00 +27°C° 0.5 mm 2 mps 739 mmHg 60%
    13:00 +27°C° 0.5 mm 3 mps 738 mmHg 60%
    14:00 +27°C° 0.7 mm 3 mps 738 mmHg 62%
    15:00 +26°C° 0.7 mm 3 mps 738 mmHg 65%
    16:00 +26°C° 0.7 mm 3 mps 738 mmHg 67%
    17:00 +24°C° 0.3 mm 2 mps 738 mmHg 72%
    18:00 +23°C° 0.3 mm 2 mps 738 mmHg 78%
    19:00 +21°C° 0.3 mm 2 mps 738 mmHg 83%
    20:00 +20°C° 0.1 mm 2 mps 738 mmHg 84%
    21:00 +19°C° 0.1 mm 2 mps 738 mmHg 84%
    22:00 +19°C° 0.1 mm 2 mps 739 mmHg 85%
    23:00 +18°C° 0 mm 2 mps 739 mmHg 85%

    Day after tomorrow, 25 May, Friday

    Time Temperature Precipitation Wind Pressure Humidity
    00:00 +18°C° 0 mm 2 mps 739 mmHg 85%
    01:00 +18°C° 0 mm 2 mps 738 mmHg 86%
    02:00 +17°C° 0 mm 2 mps 738 mmHg 86%
    03:00 +17°C° 0 mm 2 mps 738 mmHg 87%
    04:00 +17°C° 0 mm 2 mps 738 mmHg 87%
    05:00 +18°C° 0 mm 2 mps 738 mmHg 83%
    06:00 +20°C° 0 mm 2 mps 739 mmHg 80%
    07:00 +23°C° 0 mm 2 mps 739 mmHg 76%
    08:00 +24°C° 0 mm 2 mps 739 mmHg 70%
    09:00 +25°C° 0 mm 2 mps 739 mmHg 64%
    10:00 +27°C° 0 mm 2 mps 739 mmHg 58%
    11:00 +27°C° 0.1 mm 2 mps 739 mmHg 56%
    12:00 +28°C° 0.1 mm 2 mps 738 mmHg 55%
    13:00 +28°C° 0.1 mm 3 mps 738 mmHg 54%
    14:00 +28°C° 0.2 mm 3 mps 738 mmHg 55%
    15:00 +28°C° 0.2 mm 3 mps 738 mmHg 57%
    16:00 +28°C° 0.2 mm 3 mps 738 mmHg 58%
    17:00 +26°C° 0.2 mm 3 mps 738 mmHg 65%
    18:00 +24°C° 0.2 mm 2 mps 739 mmHg 72%
    19:00 +21°C° 0.2 mm 2 mps 739 mmHg 78%
    20:00 +21°C° 0 mm 2 mps 739 mmHg 79%
    21:00 +20°C° 0 mm 2 mps 740 mmHg 79%
    22:00 +19°C° 0 mm 2 mps 740 mmHg 80%
    23:00 +19°C° 0 mm 2 mps 740 mmHg 81%

    26 May, Saturday

    Time Temperature Precipitation Wind Pressure Humidity
    00:00 +18°C° 0 mm 3 mps 740 mmHg 82%
    01:00 +18°C° 0 mm 3 mps 740 mmHg 83%
    02:00 +18°C° 0 mm 3 mps 740 mmHg 84%
    03:00 +18°C° 0 mm 3 mps 740 mmHg 85%
    04:00 +17°C° 0 mm 3 mps 740 mmHg 86%
    05:00 +19°C° 0 mm 3 mps 740 mmHg 82%
    06:00 +20°C° 0 mm 3 mps 740 mmHg 78%
    07:00 +22°C° 0 mm 3 mps 741 mmHg 74%
    08:00 +24°C° 0 mm 3 mps 741 mmHg 67%
    09:00 +26°C° 0 mm 3 mps 741 mmHg 60%
    10:00 +27°C° 0 mm 3 mps 741 mmHg 54%
    11:00 +28°C° 0 mm 3 mps 741 mmHg 52%
    12:00 +29°C° 0 mm 3 mps 741 mmHg 51%
    13:00 +29°C° 0 mm 3 mps 740 mmHg 49%
    14:00 +29°C° 0 mm 3 mps 740 mmHg 51%
    15:00 +29°C° 0 mm 3 mps 740 mmHg 54%
    16:00 +29°C° 0 mm 3 mps 740 mmHg 56%
    17:00 +27°C° 0.1 mm 3 mps 740 mmHg 63%
    18:00 +25°C° 0.1 mm 3 mps 740 mmHg 71%
    19:00 +23°C° 0.1 mm 2 mps 741 mmHg 79%
    20:00 +21°C° 0 mm 2 mps 741 mmHg 80%
    21:00 +21°C° 0 mm 2 mps 741 mmHg 81%
    22:00 +20°C° 0 mm 3 mps 741 mmHg 82%
    23:00 +19°C° 0 mm 3 mps 741 mmHg 83%

    27 May, Sunday

    Time Temperature Precipitation Wind Pressure Humidity
    00:00 +19°C° 0 mm 3 mps 741 mmHg 84%
    01:00 +19°C° 0 mm 3 mps 741 mmHg 85%
    02:00 +19°C° 0 mm 3 mps 741 mmHg 85%
    03:00 +18°C° 0 mm 3 mps 741 mmHg 86%
    04:00 +18°C° 0 mm 3 mps 741 mmHg 87%
    05:00 +20°C° 0 mm 3 mps 741 mmHg 83%
    06:00 +21°C° 0 mm 3 mps 741 mmHg 79%
    07:00 +24°C° 0 mm 3 mps 741 mmHg 75%
    08:00 +25°C° 0 mm 2 mps 741 mmHg 69%
    09:00 +27°C° 0 mm 2 mps 741 mmHg 63%
    10:00 +28°C° 0 mm 2 mps 741 mmHg 57%
    11:00 +28°C° 0.1 mm 2 mps 741 mmHg 56%
    12:00 +29°C° 0.1 mm 2 mps 741 mmHg 55%
    13:00 +29°C° 0.1 mm 3 mps 740 mmHg 53%
    14:00 +29°C° 0.1 mm 3 mps 740 mmHg 55%
    15:00 +29°C° 0.1 mm 3 mps 740 mmHg 56%
    16:00 +29°C° 0.1 mm 3 mps 740 mmHg 57%
    17:00 +27°C° 0.4 mm 2 mps 740 mmHg 65%
    18:00 +25°C° 0.4 mm 2 mps 740 mmHg 72%
    19:00 +23°C° 0.4 mm 2 mps 740 mmHg 79%
    20:00 +23°C° 0.1 mm 2 mps 740 mmHg 79%
    21:00 +21°C° 0.1 mm 2 mps 741 mmHg 80%
    22:00 +20°C° 0.1 mm 2 mps 741 mmHg 80%
    23:00 +20°C° 0 mm 2 mps 741 mmHg 81%

    28 May, Monday

    Time Temperature Precipitation Wind Pressure Humidity
    00:00 +19°C° 0 mm 2 mps 741 mmHg 81%
    01:00 +19°C° 0 mm 2 mps 741 mmHg 82%
    02:00 +19°C° 0 mm 2 mps 741 mmHg 83%
    03:00 +19°C° 0 mm 2 mps 741 mmHg 83%
    04:00 +18°C° 0 mm 2 mps 741 mmHg 84%
    05:00 +20°C° 0 mm 2 mps 741 mmHg 80%
    06:00 +23°C° 0 mm 2 mps 741 mmHg 77%
    07:00 +24°C° 0 mm 2 mps 741 mmHg 73%
    08:00 +26°C° 0 mm 2 mps 741 mmHg 67%
    09:00 +27°C° 0 mm 2 mps 741 mmHg 61%
    10:00 +29°C° 0 mm 1 mps 741 mmHg 55%
    11:00 +29°C° 0 mm 2 mps 741 mmHg 53%
    12:00 +30°C° 0 mm 2 mps 741 mmHg 51%
    13:00 +30°C° 0 mm 2 mps 740 mmHg 50%
    14:00 +30°C° 0.1 mm 3 mps 740 mmHg 52%
    15:00 +29°C° 0.1 mm 3 mps 740 mmHg 54%
    16:00 +29°C° 0.1 mm 3 mps 740 mmHg 56%
    17:00 +27°C° 0.1 mm 3 mps 740 mmHg 63%
    18:00 +25°C° 0.1 mm 2 mps 740 mmHg 69%
    19:00 +23°C° 0.1 mm 2 mps 740 mmHg 75%
    20:00 +23°C° 0 mm 2 mps 740 mmHg 75%
    21:00 +21°C° 0 mm 2 mps 740 mmHg 75%
    22:00 +20°C° 0 mm 2 mps 741 mmHg 75%
    23:00 +20°C° 0 mm 2 mps 740 mmHg 76%
    Show more